When you browse on this site, cookies collect data to enhance your experience and personalize the content and advertising you see.
Visit our Privacy Policy to learn more. By continuing to use the site, you agree to this use of cookies and data.
  • în România
  • Lista ţărilor
  • Pe 7 zile
  • Temperatura apei
  • Meteo pe hartă
  • Widget-uri
  • user-avatar
    Intrare

    Meteo pe oră la Sochaczew

    Astăzi, 12 Noiembrie, Marţi

    Timp Temperatura Precipitaţii Vânt Presiune Umiditate
    00:00 +2°C° 0 mm 5 m/s 752 mmHg 80%
    01:00 +3°C° 0 mm 5 m/s 752 mmHg 80%
    02:00 +3°C° 0 mm 5 m/s 752 mmHg 82%
    03:00 +3°C° 0 mm 5 m/s 751 mmHg 83%
    04:00 +2°C° 0 mm 5 m/s 751 mmHg 85%
    05:00 +4°C° 0 mm 4 m/s 751 mmHg 83%
    06:00 +4°C° 0 mm 4 m/s 751 mmHg 82%
    07:00 +4°C° 0 mm 4 m/s 751 mmHg 81%
    08:00 +5°C° 0 mm 4 m/s 751 mmHg 77%
    09:00 +7°C° 0 mm 3 m/s 751 mmHg 74%
    10:00 +7°C° 0 mm 3 m/s 751 mmHg 71%
    11:00 +8°C° 0 mm 3 m/s 751 mmHg 69%
    12:00 +9°C° 0 mm 3 m/s 750 mmHg 67%
    13:00 +10°C° 0 mm 3 m/s 750 mmHg 66%
    14:00 +9°C° 0 mm 3 m/s 750 mmHg 68%
    15:00 +9°C° 0 mm 2 m/s 750 mmHg 71%
    16:00 +9°C° 0 mm 2 m/s 749 mmHg 73%
    17:00 +8°C° 0.2 mm 2 m/s 749 mmHg 78%
    18:00 +8°C° 0.2 mm 2 m/s 749 mmHg 82%
    19:00 +8°C° 0.2 mm 3 m/s 749 mmHg 87%
    20:00 +8°C° 0.2 mm 3 m/s 749 mmHg 88%
    21:00 +9°C° 0.2 mm 3 m/s 749 mmHg 89%
    22:00 +9°C° 0.2 mm 3 m/s 748 mmHg 91%
    23:00 +9°C° 0.3 mm 3 m/s 748 mmHg 91%

    Mâine, 13 Noiembrie, Miercuri

    Timp Temperatura Precipitaţii Vânt Presiune Umiditate
    00:00 +8°C° 0.3 mm 4 m/s 747 mmHg 91%
    01:00 +7°C° 0.3 mm 4 m/s 747 mmHg 91%
    02:00 +9°C° 0.3 mm 3 m/s 747 mmHg 91%
    03:00 +9°C° 0.3 mm 3 m/s 746 mmHg 91%
    04:00 +9°C° 0.3 mm 3 m/s 746 mmHg 90%
    05:00 +9°C° 0.1 mm 2 m/s 745 mmHg 90%
    06:00 +9°C° 0.1 mm 2 m/s 745 mmHg 89%
    07:00 +9°C° 0.1 mm 2 m/s 745 mmHg 88%
    08:00 +9°C° 0.3 mm 2 m/s 745 mmHg 90%
    09:00 +10°C° 0.3 mm 2 m/s 745 mmHg 91%
    10:00 +10°C° 0.3 mm 2 m/s 745 mmHg 93%
    11:00 +10°C° 1.1 mm 2 m/s 744 mmHg 94%
    12:00 +10°C° 1.1 mm 2 m/s 744 mmHg 95%
    13:00 +11°C° 1.1 mm 1 m/s 744 mmHg 96%
    14:00 +11°C° 0.1 mm 1 m/s 744 mmHg 96%
    15:00 +11°C° 0.1 mm 1 m/s 744 mmHg 96%
    16:00 +11°C° 0.1 mm 1 m/s 745 mmHg 95%
    17:00 +11°C° 0 mm 1 m/s 745 mmHg 95%
    18:00 +11°C° 0 mm 1 m/s 745 mmHg 95%
    19:00 +9°C° 0 mm 2 m/s 745 mmHg 94%
    20:00 +10°C° 0 mm 2 m/s 744 mmHg 94%
    21:00 +10°C° 0 mm 3 m/s 744 mmHg 93%
    22:00 +10°C° 0 mm 4 m/s 743 mmHg 93%
    23:00 +9°C° 0 mm 5 m/s 743 mmHg 87%

    Poimâine, 14 Noiembrie, Joi

    Timp Temperatura Precipitaţii Vânt Presiune Umiditate
    00:00 +10°C° 0 mm 6 m/s 743 mmHg 82%
    01:00 +11°C° 0 mm 7 m/s 743 mmHg 76%
    02:00 +10°C° 0 mm 7 m/s 743 mmHg 78%
    03:00 +9°C° 0 mm 8 m/s 744 mmHg 81%
    04:00 +7°C° 0 mm 8 m/s 745 mmHg 83%
    05:00 +6°C° 0 mm 7 m/s 746 mmHg 84%
    06:00 +6°C° 0 mm 5 m/s 747 mmHg 84%
    07:00 +5°C° 0 mm 3 m/s 748 mmHg 85%
    08:00 +5°C° 0 mm 3 m/s 749 mmHg 83%
    09:00 +6°C° 0 mm 2 m/s 750 mmHg 81%
    10:00 +8°C° 0 mm 1 m/s 750 mmHg 79%
    11:00 +8°C° 0 mm 1 m/s 751 mmHg 77%
    12:00 +8°C° 0 mm 1 m/s 751 mmHg 76%
    13:00 +8°C° 0 mm 0 m/s 751 mmHg 74%
    14:00 +9°C° 0 mm 1 m/s 751 mmHg 76%
    15:00 +7°C° 0 mm 2 m/s 751 mmHg 79%
    16:00 +7°C° 0 mm 2 m/s 751 mmHg 81%
    17:00 +7°C° 0 mm 2 m/s 751 mmHg 82%
    18:00 +7°C° 0 mm 3 m/s 751 mmHg 83%
    19:00 +7°C° 0 mm 3 m/s 751 mmHg 83%
    20:00 +7°C° 0 mm 3 m/s 751 mmHg 85%
    21:00 +7°C° 0 mm 3 m/s 751 mmHg 87%
    22:00 +7°C° 0 mm 3 m/s 750 mmHg 89%
    23:00 +8°C° 0 mm 3 m/s 750 mmHg 91%

    15 Noiembrie, Vineri

    Timp Temperatura Precipitaţii Vânt Presiune Umiditate
    00:00 +8°C° 0 mm 3 m/s 750 mmHg 93%
    01:00 +8°C° 0 mm 3 m/s 750 mmHg 95%
    02:00 +9°C° 0 mm 3 m/s 750 mmHg 94%
    03:00 +9°C° 0 mm 3 m/s 750 mmHg 93%
    04:00 +9°C° 0 mm 3 m/s 750 mmHg 92%
    05:00 +9°C° 0 mm 3 m/s 750 mmHg 92%
    06:00 +8°C° 0 mm 4 m/s 750 mmHg 92%
    07:00 +8°C° 0 mm 4 m/s 750 mmHg 92%
    08:00 +10°C° 0 mm 4 m/s 750 mmHg 88%
    09:00 +10°C° 0 mm 4 m/s 750 mmHg 84%
    10:00 +10°C° 0 mm 5 m/s 750 mmHg 80%
    11:00 +12°C° 0 mm 5 m/s 750 mmHg 77%
    12:00 +13°C° 0 mm 5 m/s 750 mmHg 75%
    13:00 +13°C° 0 mm 5 m/s 750 mmHg 72%
    14:00 +13°C° 0 mm 5 m/s 750 mmHg 76%
    15:00 +12°C° 0 mm 4 m/s 750 mmHg 80%
    16:00 +11°C° 0 mm 4 m/s 750 mmHg 84%
    17:00 +11°C° 0 mm 4 m/s 750 mmHg 86%
    18:00 +10°C° 0 mm 4 m/s 751 mmHg 88%
    19:00 +10°C° 0 mm 4 m/s 751 mmHg 90%
    20:00 +10°C° 0 mm 4 m/s 751 mmHg 90%
    21:00 +10°C° 0 mm 4 m/s 751 mmHg 91%
    22:00 +10°C° 0 mm 4 m/s 751 mmHg 92%
    23:00 +10°C° 0 mm 4 m/s 751 mmHg 92%

    16 Noiembrie, Sâmbătă

    Timp Temperatura Precipitaţii Vânt Presiune Umiditate
    00:00 +8°C° 0 mm 4 m/s 751 mmHg 92%
    01:00 +9°C° 0 mm 3 m/s 751 mmHg 92%
    02:00 +9°C° 0 mm 3 m/s 751 mmHg 92%
    03:00 +8°C° 0 mm 4 m/s 751 mmHg 92%
    04:00 +8°C° 0 mm 4 m/s 751 mmHg 92%
    05:00 +8°C° 0 mm 4 m/s 751 mmHg 92%
    06:00 +8°C° 0 mm 4 m/s 751 mmHg 92%
    07:00 +8°C° 0 mm 4 m/s 751 mmHg 91%
    08:00 +10°C° 0 mm 4 m/s 751 mmHg 86%
    09:00 +10°C° 0 mm 5 m/s 752 mmHg 81%
    10:00 +12°C° 0 mm 5 m/s 752 mmHg 75%
    11:00 +13°C° 0 mm 5 m/s 752 mmHg 71%
    12:00 +14°C° 0 mm 5 m/s 752 mmHg 67%
    13:00 +15°C° 0 mm 4 m/s 752 mmHg 63%
    14:00 +14°C° 0 mm 4 m/s 752 mmHg 67%
    15:00 +13°C° 0 mm 3 m/s 753 mmHg 70%
    16:00 +13°C° 0 mm 3 m/s 753 mmHg 74%
    17:00 +12°C° 0 mm 3 m/s 753 mmHg 76%
    18:00 +12°C° 0 mm 3 m/s 753 mmHg 77%
    19:00 +12°C° 0 mm 2 m/s 754 mmHg 79%
    20:00 +12°C° 0 mm 2 m/s 754 mmHg 80%
    21:00 +12°C° 0 mm 2 m/s 754 mmHg 81%
    22:00 +12°C° 0 mm 2 m/s 755 mmHg 81%
    23:00 +10°C° 0 mm 2 m/s 754 mmHg 83%

    17 Noiembrie, Duminică

    Timp Temperatura Precipitaţii Vânt Presiune Umiditate
    00:00 +10°C° 0 mm 3 m/s 754 mmHg 84%
    01:00 +10°C° 0 mm 3 m/s 754 mmHg 85%
    02:00 +9°C° 0 mm 3 m/s 754 mmHg 85%
    03:00 +8°C° 0 mm 4 m/s 754 mmHg 84%
    04:00 +8°C° 0 mm 4 m/s 754 mmHg 84%
    05:00 +8°C° 0 mm 4 m/s 754 mmHg 86%
    06:00 +8°C° 0 mm 5 m/s 754 mmHg 87%
    07:00 +8°C° 0 mm 5 m/s 754 mmHg 89%
    08:00 +8°C° 0 mm 6 m/s 754 mmHg 88%
    09:00 +9°C° 0 mm 6 m/s 754 mmHg 87%
    10:00 +9°C° 0 mm 6 m/s 754 mmHg 85%
    11:00 +10°C° 0 mm 6 m/s 753 mmHg 82%
    12:00 +10°C° 0 mm 6 m/s 753 mmHg 79%
    13:00 +11°C° 0 mm 6 m/s 753 mmHg 76%
    14:00 +11°C° 0 mm 6 m/s 752 mmHg 78%
    15:00 +10°C° 0 mm 5 m/s 752 mmHg 80%
    16:00 +10°C° 0 mm 5 m/s 752 mmHg 82%
    17:00 +10°C° 0 mm 5 m/s 752 mmHg 83%
    18:00 +10°C° 0 mm 6 m/s 752 mmHg 84%
    19:00 +10°C° 0 mm 6 m/s 752 mmHg 85%
    20:00 +9°C° 0 mm 6 m/s 752 mmHg 86%
    21:00 +9°C° 0 mm 6 m/s 752 mmHg 87%
    22:00 +8°C° 0 mm 6 m/s 752 mmHg 87%
    23:00 +8°C° 0 mm 5 m/s 752 mmHg 88%
    Arată mai mult